• In Germany
  • List of Countries
  • For 7 days
  • Water Temperature
  • Satellite Maps
  • Weather Map
  • Weather Widgets
  • user-avatar
    Login

    Hourly Weather Satif

    Today, 23 May, Wednesday

    Time Temperature Precipitation Wind Pressure Humidity
    00:00 +14°C° 0 mm 1 mps 673 mmHg 82%
    01:00 +13°C° 0 mm 1 mps 673 mmHg 82%
    02:00 +13°C° 0 mm 1 mps 672 mmHg 83%
    03:00 +13°C° 0 mm 1 mps 672 mmHg 84%
    04:00 +14°C° 0 mm 1 mps 673 mmHg 79%
    05:00 +15°C° 0 mm 1 mps 673 mmHg 74%
    06:00 +15°C° 0 mm 1 mps 674 mmHg 71%
    07:00 +18°C° 0 mm 1 mps 674 mmHg 61%
    08:00 +20°C° 0 mm 1 mps 675 mmHg 51%
    09:00 +21°C° 0 mm 1 mps 675 mmHg 41%
    10:00 +21°C° 0 mm 2 mps 675 mmHg 37%
    11:00 +23°C° 0 mm 2 mps 676 mmHg 34%
    12:00 +24°C° 0 mm 3 mps 676 mmHg 33%
    13:00 +25°C° 0 mm 3 mps 676 mmHg 33%
    14:00 +25°C° 0 mm 3 mps 675 mmHg 33%
    15:00 +25°C° 0 mm 3 mps 675 mmHg 33%
    16:00 +24°C° 0 mm 3 mps 675 mmHg 38%
    17:00 +24°C° 0 mm 3 mps 675 mmHg 42%
    18:00 +23°C° 0 mm 2 mps 675 mmHg 46%
    19:00 +21°C° 0 mm 2 mps 675 mmHg 51%
    20:00 +20°C° 0 mm 2 mps 675 mmHg 55%
    21:00 +20°C° 0 mm 1 mps 675 mmHg 59%
    22:00 +19°C° 0 mm 1 mps 675 mmHg 59%
    23:00 +19°C° 0 mm 1 mps 674 mmHg 60%

    Tomorrow, 24 May, Thursday

    Time Temperature Precipitation Wind Pressure Humidity
    00:00 +19°C° 0 mm 1 mps 674 mmHg 60%
    01:00 +19°C° 0 mm 1 mps 674 mmHg 58%
    02:00 +18°C° 0 mm 2 mps 674 mmHg 57%
    03:00 +17°C° 0 mm 2 mps 674 mmHg 56%
    04:00 +18°C° 0 mm 2 mps 674 mmHg 54%
    05:00 +19°C° 0 mm 2 mps 674 mmHg 52%
    06:00 +20°C° 0 mm 2 mps 674 mmHg 50%
    07:00 +22°C° 0 mm 3 mps 675 mmHg 43%
    08:00 +25°C° 0 mm 3 mps 675 mmHg 37%
    09:00 +27°C° 0 mm 3 mps 676 mmHg 31%
    10:00 +27°C° 0 mm 3 mps 676 mmHg 29%
    11:00 +28°C° 0 mm 4 mps 676 mmHg 27%
    12:00 +29°C° 0 mm 4 mps 676 mmHg 25%
    13:00 +29°C° 0 mm 4 mps 675 mmHg 25%
    14:00 +29°C° 0 mm 4 mps 675 mmHg 26%
    15:00 +29°C° 0 mm 4 mps 675 mmHg 26%
    16:00 +28°C° 0 mm 4 mps 675 mmHg 30%
    17:00 +27°C° 0 mm 3 mps 674 mmHg 34%
    18:00 +26°C° 0 mm 3 mps 674 mmHg 38%
    19:00 +25°C° 0 mm 3 mps 674 mmHg 40%
    20:00 +24°C° 0 mm 2 mps 674 mmHg 41%
    21:00 +23°C° 0 mm 2 mps 674 mmHg 43%
    22:00 +21°C° 0 mm 2 mps 673 mmHg 43%
    23:00 +21°C° 0 mm 2 mps 673 mmHg 42%

    Day after tomorrow, 25 May, Friday

    Time Temperature Precipitation Wind Pressure Humidity
    00:00 +20°C° 0 mm 2 mps 672 mmHg 42%
    01:00 +20°C° 0 mm 2 mps 672 mmHg 43%
    02:00 +20°C° 0 mm 2 mps 672 mmHg 45%
    03:00 +19°C° 0 mm 2 mps 672 mmHg 46%
    04:00 +20°C° 0 mm 2 mps 672 mmHg 46%
    05:00 +21°C° 0 mm 2 mps 672 mmHg 45%
    06:00 +21°C° 0 mm 2 mps 673 mmHg 45%
    07:00 +24°C° 0 mm 3 mps 673 mmHg 39%
    08:00 +26°C° 0 mm 4 mps 674 mmHg 32%
    09:00 +28°C° 0 mm 5 mps 674 mmHg 25%
    10:00 +29°C° 0 mm 5 mps 674 mmHg 24%
    11:00 +30°C° 0 mm 6 mps 674 mmHg 22%
    12:00 +32°C° 0 mm 7 mps 674 mmHg 21%
    13:00 +32°C° 0 mm 7 mps 674 mmHg 20%
    14:00 +32°C° 0 mm 6 mps 674 mmHg 20%
    15:00 +32°C° 0 mm 6 mps 673 mmHg 20%
    16:00 +30°C° 0 mm 6 mps 673 mmHg 24%
    17:00 +29°C° 0 mm 5 mps 673 mmHg 27%
    18:00 +28°C° 0 mm 5 mps 672 mmHg 31%
    19:00 +26°C° 0 mm 4 mps 672 mmHg 32%
    20:00 +25°C° 0 mm 3 mps 672 mmHg 33%
    21:00 +24°C° 0 mm 2 mps 672 mmHg 33%
    22:00 +23°C° 0 mm 2 mps 672 mmHg 35%
    23:00 +23°C° 0 mm 2 mps 672 mmHg 36%

    26 May, Saturday

    Time Temperature Precipitation Wind Pressure Humidity
    00:00 +21°C° 0 mm 2 mps 672 mmHg 37%
    01:00 +21°C° 0 mm 2 mps 671 mmHg 38%
    02:00 +21°C° 0 mm 2 mps 671 mmHg 38%
    03:00 +21°C° 0 mm 2 mps 671 mmHg 38%
    04:00 +21°C° 0 mm 2 mps 672 mmHg 38%
    05:00 +23°C° 0 mm 2 mps 672 mmHg 39%
    06:00 +23°C° 0 mm 2 mps 672 mmHg 39%
    07:00 +25°C° 0 mm 4 mps 673 mmHg 35%
    08:00 +27°C° 0 mm 5 mps 673 mmHg 30%
    09:00 +29°C° 0 mm 6 mps 674 mmHg 26%
    10:00 +30°C° 0 mm 6 mps 674 mmHg 25%
    11:00 +30°C° 0 mm 6 mps 674 mmHg 25%
    12:00 +32°C° 0 mm 6 mps 674 mmHg 24%
    13:00 +32°C° 0 mm 5 mps 674 mmHg 24%
    14:00 +32°C° 0 mm 5 mps 674 mmHg 25%
    15:00 +32°C° 0 mm 5 mps 674 mmHg 25%
    16:00 +30°C° 0.1 mm 4 mps 673 mmHg 29%
    17:00 +28°C° 0.1 mm 3 mps 673 mmHg 34%
    18:00 +27°C° 0.1 mm 3 mps 673 mmHg 39%
    19:00 +26°C° 0.3 mm 2 mps 673 mmHg 41%
    20:00 +25°C° 0.3 mm 2 mps 673 mmHg 44%
    21:00 +24°C° 0.3 mm 2 mps 673 mmHg 46%
    22:00 +23°C° 0.4 mm 1 mps 673 mmHg 48%
    23:00 +23°C° 0.4 mm 1 mps 673 mmHg 50%

    27 May, Sunday

    Time Temperature Precipitation Wind Pressure Humidity
    00:00 +22°C° 0.4 mm 1 mps 673 mmHg 52%
    01:00 +22°C° 0.2 mm 1 mps 673 mmHg 52%
    02:00 +22°C° 0.2 mm 1 mps 672 mmHg 51%
    03:00 +22°C° 0.2 mm 1 mps 672 mmHg 51%
    04:00 +21°C° 0.1 mm 2 mps 673 mmHg 50%
    05:00 +23°C° 0.1 mm 2 mps 673 mmHg 49%
    06:00 +24°C° 0.1 mm 2 mps 673 mmHg 48%
    07:00 +25°C° 0.3 mm 2 mps 674 mmHg 45%
    08:00 +26°C° 0.3 mm 2 mps 674 mmHg 41%
    09:00 +27°C° 0.3 mm 2 mps 675 mmHg 38%
    10:00 +28°C° 0 mm 3 mps 675 mmHg 34%
    11:00 +29°C° 0 mm 4 mps 675 mmHg 31%
    12:00 +32°C° 0 mm 4 mps 675 mmHg 27%
    13:00 +32°C° 0 mm 5 mps 674 mmHg 26%
    14:00 +33°C° 0 mm 5 mps 674 mmHg 25%
    15:00 +33°C° 0 mm 5 mps 673 mmHg 24%
    16:00 +32°C° 0 mm 5 mps 673 mmHg 27%
    17:00 +30°C° 0 mm 5 mps 672 mmHg 30%
    18:00 +29°C° 0 mm 5 mps 672 mmHg 33%
    19:00 +27°C° 0 mm 4 mps 672 mmHg 38%
    20:00 +25°C° 0 mm 4 mps 672 mmHg 43%
    21:00 +24°C° 0 mm 3 mps 672 mmHg 48%
    22:00 +22°C° 0 mm 3 mps 672 mmHg 52%
    23:00 +21°C° 0 mm 2 mps 671 mmHg 56%

    28 May, Monday

    Time Temperature Precipitation Wind Pressure Humidity
    00:00 +20°C° 0 mm 2 mps 671 mmHg 60%
    01:00 +20°C° 0 mm 2 mps 670 mmHg 62%
    02:00 +19°C° 0 mm 2 mps 670 mmHg 65%
    03:00 +20°C° 0 mm 1 mps 670 mmHg 68%
    04:00 +20°C° 0 mm 1 mps 670 mmHg 68%
    05:00 +20°C° 0 mm 1 mps 671 mmHg 68%
    06:00 +20°C° 0 mm 1 mps 671 mmHg 68%
    07:00 +23°C° 0 mm 2 mps 671 mmHg 58%
    08:00 +25°C° 0 mm 3 mps 672 mmHg 48%
    09:00 +27°C° 0 mm 4 mps 672 mmHg 38%
    10:00 +28°C° 0 mm 5 mps 672 mmHg 34%
    11:00 +30°C° 0 mm 6 mps 672 mmHg 29%
    12:00 +32°C° 0 mm 8 mps 672 mmHg 25%
    13:00 +32°C° 0 mm 7 mps 672 mmHg 26%
    14:00 +30°C° 0 mm 7 mps 672 mmHg 28%
    15:00 +30°C° 0 mm 7 mps 671 mmHg 30%
    16:00 +29°C° 0 mm 6 mps 671 mmHg 36%
    17:00 +27°C° 0 mm 5 mps 671 mmHg 42%
    18:00 +26°C° 0 mm 4 mps 670 mmHg 48%
    19:00 +23°C° 0 mm 4 mps 670 mmHg 56%
    20:00 +21°C° 0 mm 4 mps 670 mmHg 65%
    21:00 +19°C° 0 mm 4 mps 670 mmHg 74%
    22:00 +18°C° 0 mm 4 mps 670 mmHg 78%
    23:00 +18°C° 0 mm 3 mps 670 mmHg 81%
    Show more